Colby, KS

12:47 PM CST on February 25, 2017 (GMT -0600)
Shaltz

Weather History for KCBK - September, 2012

Change the Weather History Date:

Friday, September 28, 2012

  Actual Average (KGLD) Record (KGLD)
Temperature  
Mean Temperature 63 °F -  
Max Temperature 71 °F 74 °F 97 °F (1953)
Min Temperature 51 °F 45 °F 26 °F (1985)
Degree Days  
Heating Degree Days 2    
Growing Degree Days 13 (Base 50)    
Moisture  
Dew Point 52 °F    
Average Humidity 73    
Maximum Humidity 100    
Minimum Humidity 38    
Precipitation  
Precipitation 0.00 in - - ()
Sea Level Pressure  
Sea Level Pressure 30.18 in    
Wind  
Wind Speed 6 mph ()    
Max Wind Speed 14 mph    
Max Gust Speed 17 mph    
Visibility 9.2 miles    
Events      
Averages and records for this station are not official NWS values.
T = Trace of Precipitation, MM = Missing Value Source: Averaged Metar Reports

Daily Weather History Graph

Daily Weather History Graph

Search for Another Location

Airport or City:

Trip Planner

Search our weather history database for the weather conditions in past years. The results will help you decide how hot, cold, wet, or windy it might be!

Date:

Astronomy

Sep. 28, 2012 Rise Set
Actual Time 7:37 AM CDT 7:30 PM CDT
Civil Twilight 7:11 AM CDT 7:57 PM CDT
Nautical Twilight 6:39 AM CDT 8:28 PM CDT
Astronomical Twilight 6:08 AM CDT 8:59 PM CDT
Moon 6:33 PM CDT (9/28) 6:10 AM CDT (9/28)
Length of Visible Light 12h 46m
Length of Day
11h 52m
Waxing Gibbous, 98% of the Moon is Illuminated
Sep 28
Waxing Gibbous
Sep 29
Full
Oct 8
Last Quarter
Oct 15
New
Oct 21
First Quarter

Hourly Weather History & Observations

Time (CDT) Temp. Dew Point Humidity Pressure Visibility Wind Dir Wind Speed Gust Speed Precip Events Conditions
12:15 AM 59.0 °F 53.6 °F 82% 30.18 in 10.0 mi ESE 8.1 mph - N/A   Overcast
12:35 AM 59.0 °F 53.6 °F 82% 30.17 in 10.0 mi East 8.1 mph - N/A   Overcast
12:55 AM 59.0 °F 53.6 °F 82% 30.18 in 10.0 mi ESE 6.9 mph - N/A   Mostly Cloudy
1:15 AM 59.0 °F 53.6 °F 82% 30.17 in 10.0 mi ENE 8.1 mph - N/A   Overcast
1:35 AM 59.0 °F 53.6 °F 82% 30.17 in 10.0 mi ESE 6.9 mph - N/A   Mostly Cloudy
1:55 AM 59.0 °F 53.6 °F 82% 30.18 in 10.0 mi SE 5.8 mph - N/A   Overcast
2:15 AM 59.0 °F 55.4 °F 88% 30.18 in 10.0 mi SE 5.8 mph - N/A   Overcast
2:35 AM 59.0 °F 55.4 °F 88% 30.18 in 10.0 mi SE 6.9 mph - N/A   Overcast
2:55 AM 59.0 °F 55.4 °F 88% 30.18 in 10.0 mi ESE 5.8 mph - N/A   Overcast
3:15 AM 57.2 °F 55.4 °F 94% 30.18 in 10.0 mi East 5.8 mph - N/A   Overcast
3:55 AM 57.2 °F 55.4 °F 94% 30.18 in 10.0 mi East 3.5 mph - N/A   Overcast
4:15 AM 57.2 °F 57.2 °F 100% 30.19 in 7.0 mi ESE 6.9 mph - N/A   Overcast
4:35 AM 59.0 °F 57.2 °F 94% 30.18 in 10.0 mi Calm Calm - N/A   Overcast
4:55 AM 59.0 °F 57.2 °F 94% 30.18 in 10.0 mi SE 3.5 mph - N/A   Overcast
5:15 AM 57.2 °F 57.2 °F 100% 30.18 in 10.0 mi East 4.6 mph - N/A   Overcast
5:35 AM 57.2 °F 57.2 °F 100% 30.18 in 10.0 mi East 5.8 mph - N/A   Overcast
5:55 AM 57.2 °F 57.2 °F 100% 30.18 in 10.0 mi East 4.6 mph - N/A   Overcast
6:15 AM 57.2 °F 57.2 °F 100% 30.18 in 7.0 mi East 4.6 mph - N/A   Overcast
6:35 AM 57.2 °F 57.2 °F 100% 30.18 in 7.0 mi ESE 4.6 mph - N/A   Overcast
6:55 AM 57.2 °F 57.2 °F 100% 30.18 in 5.0 mi ESE 4.6 mph - N/A   Overcast
7:15 AM 57.2 °F 57.2 °F 100% 30.18 in 4.0 mi ESE 4.6 mph - N/A   Overcast
7:35 AM 57.2 °F 57.2 °F 100% 30.18 in 3.0 mi ESE 4.6 mph - N/A   Overcast
7:55 AM 57.2 °F 57.2 °F 100% 30.18 in 3.0 mi Calm Calm - N/A   Overcast
8:15 AM 57.2 °F 57.2 °F 100% 30.19 in 3.0 mi Calm Calm - N/A   Overcast
8:35 AM 57.2 °F 57.2 °F 100% 30.19 in 4.0 mi Calm Calm - N/A   Overcast
8:55 AM 59.0 °F 59.0 °F 100% 30.19 in 4.0 mi East 4.6 mph - N/A   Overcast
9:15 AM 59.0 °F 59.0 °F 100% 30.20 in 7.0 mi ENE 8.1 mph - N/A   Overcast
9:35 AM 60.8 °F 59.0 °F 94% 30.20 in 10.0 mi East 6.9 mph - N/A   Overcast
9:55 AM 60.8 °F 59.0 °F 94% 30.21 in 10.0 mi East 4.6 mph - N/A   Mostly Cloudy
10:15 AM 62.6 °F 59.0 °F 88% 30.21 in 10.0 mi East 4.6 mph - N/A   Overcast
10:35 AM 64.4 °F 57.2 °F 77% 30.21 in 10.0 mi South 3.5 mph - N/A   Overcast
10:55 AM 64.4 °F 57.2 °F 77% 30.21 in 10.0 mi SE 3.5 mph - N/A   Overcast
11:15 AM 68.0 °F 55.4 °F 64% 30.21 in 10.0 mi SE 4.6 mph - N/A   Overcast
11:35 AM 69.8 °F 51.8 °F 53% 30.21 in 10.0 mi SE 8.1 mph - N/A   Mostly Cloudy
11:55 AM 68.0 °F 50.0 °F 52% 30.21 in 10.0 mi SSE 5.8 mph - N/A   Mostly Cloudy
12:15 PM 71.6 °F 50.0 °F 46% 30.21 in 10.0 mi ESE 10.4 mph - N/A   Overcast
12:35 PM 69.8 °F 48.2 °F 46% 30.20 in 10.0 mi East 6.9 mph - N/A   Overcast
12:55 PM 69.8 °F 48.2 °F 46% 30.20 in 10.0 mi SE 12.7 mph - N/A   Overcast
1:15 PM 69.8 °F 50.0 °F 49% 30.20 in 10.0 mi ESE 9.2 mph - N/A   Overcast
1:35 PM 69.8 °F 48.2 °F 46% 30.20 in 10.0 mi ESE 12.7 mph - N/A   Overcast
1:55 PM 69.8 °F 50.0 °F 49% 30.19 in 10.0 mi SE 10.4 mph - N/A   Overcast
2:15 PM 69.8 °F 50.0 °F 49% 30.18 in 10.0 mi SE 10.4 mph - N/A   Overcast
2:35 PM 69.8 °F 50.0 °F 49% 30.18 in 10.0 mi SE 10.4 mph - N/A   Overcast
2:55 PM 71.6 °F 50.0 °F 46% 30.17 in 10.0 mi ESE 10.4 mph - N/A   Overcast
3:15 PM 71.6 °F 50.0 °F 46% 30.16 in 10.0 mi ESE 10.4 mph 16.1 mph N/A   Overcast
3:35 PM 69.8 °F 48.2 °F 46% 30.16 in 10.0 mi ESE 12.7 mph 17.3 mph N/A   Overcast
3:55 PM 71.6 °F 46.4 °F 41% 30.15 in 10.0 mi East 8.1 mph 11.5 mph N/A   Overcast
4:15 PM 71.6 °F 44.6 °F 38% 30.15 in 10.0 mi East 11.5 mph - N/A   Overcast
4:35 PM 69.8 °F 46.4 °F 43% 30.15 in 10.0 mi ESE 10.4 mph - N/A   Overcast
4:55 PM 69.8 °F 46.4 °F 43% 30.14 in 10.0 mi East 13.8 mph - N/A   Overcast
5:15 PM 71.6 °F 48.2 °F 43% 30.14 in 10.0 mi ESE 10.4 mph - N/A   Overcast
5:35 PM 69.8 °F 48.2 °F 46% 30.15 in 10.0 mi ESE 11.5 mph - N/A   Overcast
5:55 PM 69.8 °F 48.2 °F 46% 30.15 in 10.0 mi ESE 11.5 mph - N/A   Overcast
6:15 PM 69.8 °F 48.2 °F 46% 30.15 in 10.0 mi ESE 10.4 mph - N/A   Overcast
6:35 PM 69.8 °F 50.0 °F 49% 30.15 in 10.0 mi ESE 10.4 mph - N/A   Scattered Clouds
6:55 PM 68.0 °F 50.0 °F 52% 30.15 in 10.0 mi SE 8.1 mph - N/A   Clear
7:15 PM 66.2 °F 50.0 °F 56% 30.15 in 10.0 mi SE 6.9 mph - N/A   Clear
7:35 PM 62.6 °F 50.0 °F 63% 30.15 in 10.0 mi SE 5.8 mph - N/A   Clear
7:55 PM 60.8 °F 48.2 °F 63% 30.15 in 10.0 mi SE 4.6 mph - N/A   Clear
8:15 PM 59.0 °F 46.4 °F 63% 30.16 in 10.0 mi SE 5.8 mph - N/A   Clear
8:35 PM 57.2 °F 46.4 °F 67% 30.16 in 10.0 mi SE 4.6 mph - N/A   Clear
8:55 PM 55.4 °F 46.4 °F 72% 30.17 in 10.0 mi SE 4.6 mph - N/A   Clear
9:15 PM 55.4 °F 46.4 °F 72% 30.17 in 10.0 mi SE 5.8 mph - N/A   Clear
9:35 PM 55.4 °F 50.0 °F 82% 30.17 in 10.0 mi SSE 5.8 mph - N/A   Clear
9:55 PM 55.4 °F 50.0 °F 82% 30.18 in 10.0 mi SSE 6.9 mph - N/A   Clear
10:15 PM 55.4 °F 50.0 °F 82% 30.18 in 10.0 mi SSE 6.9 mph - N/A   Clear
10:35 PM 57.2 °F 50.0 °F 77% 30.19 in 10.0 mi South 4.6 mph - N/A   Clear
10:55 PM 55.4 °F 50.0 °F 82% 30.19 in 10.0 mi South 4.6 mph - N/A   Clear
11:15 PM 55.4 °F 50.0 °F 82% 30.19 in 10.0 mi SSE 3.5 mph - N/A   Scattered Clouds
11:35 PM 55.4 °F 50.0 °F 82% 30.19 in 10.0 mi South 3.5 mph - N/A   Clear
11:55 PM 51.8 °F 48.2 °F 88% 30.19 in 10.0 mi South 3.5 mph - N/A   Clear